TimeMDT,TemperatureF,Dew PointF,Humidity,Sea Level PressureIn,VisibilityMPH,Wind Direction,Wind SpeedMPH,Gust SpeedMPH,PrecipitationIn,Events,Conditions,WindDirDegrees,DateUTC
12:53 AM,46.9,44.1,90,30.07,10.0,NNW,5.8,-,0.00,,Overcast,330,2013-04-20 06:53:00
1:53 AM,46.9,43.0,86,30.09,10.0,NW,4.6,-,N/A,,Overcast,310,2013-04-20 07:53:00
2:53 AM,46.0,43.0,89,30.09,10.0,NW,5.8,-,0.00,Rain,Light Rain,310,2013-04-20 08:53:00
3:53 AM,46.0,42.1,86,30.10,10.0,NNW,3.5,-,0.00,,Overcast,340,2013-04-20 09:53:00
4:53 AM,46.0,37.9,73,30.11,10.0,NW,9.2,-,N/A,,Overcast,310,2013-04-20 10:53:00
5:51 AM,44.6,37.4,76,30.12,10.0,WNW,6.9,-,0.00,,Overcast,300,2013-04-20 11:51:00
5:53 AM,45.0,37.9,76,30.12,10.0,WNW,8.1,-,0.00,,Overcast,300,2013-04-20 11:53:00
6:13 AM,44.6,37.4,76,30.13,10.0,NW,4.6,-,0.00,Rain,Light Rain,310,2013-04-20 12:13:00
6:53 AM,45.0,37.0,74,30.14,10.0,NW,10.4,-,0.00,,Overcast,310,2013-04-20 12:53:00
7:53 AM,44.1,36.0,73,30.16,10.0,NW,9.2,-,N/A,,Mostly Cloudy,310,2013-04-20 13:53:00
8:53 AM,46.0,35.1,66,30.18,10.0,NW,11.5,-,N/A,,Scattered Clouds,320,2013-04-20 14:53:00
9:53 AM,48.9,37.0,64,30.18,10.0,NW,13.8,-,N/A,,Mostly Cloudy,320,2013-04-20 15:53:00
10:53 AM,48.9,34.0,56,30.19,10.0,WNW,17.3,21.9,N/A,,Overcast,290,2013-04-20 16:53:00
11:53 AM,50.0,35.1,57,30.18,10.0,WNW,11.5,-,N/A,,Overcast,290,2013-04-20 17:53:00
12:53 PM,52.0,35.1,53,30.17,10.0,WNW,15.0,-,N/A,,Overcast,290,2013-04-20 18:53:00
1:53 PM,54.0,35.1,49,30.15,10.0,NNW,8.1,-,N/A,,Mostly Cloudy,340,2013-04-20 19:53:00
2:53 PM,55.0,33.1,43,30.14,10.0,NNW,12.7,19.6,N/A,,Mostly Cloudy,330,2013-04-20 20:53:00
3:53 PM,59.0,32.0,36,30.11,10.0,NNW,10.4,18.4,N/A,,Clear,330,2013-04-20 21:53:00
4:53 PM,60.1,33.1,36,30.10,10.0,NNW,9.2,16.1,N/A,,Mostly Cloudy,340,2013-04-20 22:53:00
5:53 PM,61.0,30.0,31,30.08,10.0,North,13.8,-,N/A,,Partly Cloudy,360,2013-04-20 23:53:00
6:53 PM,60.1,30.0,32,30.07,10.0,NNW,13.8,18.4,N/A,,Partly Cloudy,340,2013-04-21 00:53:00
7:53 PM,57.9,28.9,33,30.07,10.0,NNW,11.5,-,N/A,,Clear,330,2013-04-21 01:53:00
8:53 PM,54.0,30.0,40,30.09,10.0,North,5.8,-,N/A,,Clear,350,2013-04-21 02:53:00
9:53 PM,53.1,30.9,43,30.09,10.0,Calm,Calm,-,N/A,,Clear,0,2013-04-21 03:53:00
10:53 PM,50.0,32.0,50,30.10,10.0,Calm,Calm,-,N/A,,Clear,0,2013-04-21 04:53:00
11:53 PM,46.0,32.0,58,30.12,10.0,Calm,Calm,-,N/A,,Clear,0,2013-04-21 05:53:00